Location: Newark
(36.0797°N, 3.9744°E)
Time: 00:02:27
(UTC+00:00)

Vanguard 2 - Pass Details

Date: 11 December 2019
Orbit: 553 x 2938 km, 32.9° (Epoch: 21 January)

Event Time Altitude Azimuth Distance (km) Brightness Sun altitude
Exits shadow 00:07:07 15° 84° (E) 5,324 11.8 -75.3°
Drops below altitude 10° 00:09:18 10° 81° (E) 5,767 12.0 -75.1°
Sets 00:13:58 0° 77° (ENE) 6,728 12.5 -74.6°
